When you browse on this site, cookies collect data to enhance your experience and personalize the content and advertising you see.
Visit our Privacy Policy to learn more. By continuing to use the site, you agree to this use of cookies and data.
  • In Romania
  • List of Countries
  • For 7 days
  • Water Temperature
  • Satellite Maps
  • Weather Map
  • Weather Widgets
  • user-avatar
    Login

    Hourly Weather Ciudad Bolívar

    Today, 17 June, Monday

    Time Temperature Precipitation Wind Pressure Humidity
    00:00 +28°C° 0 mm 5 mps 754 mmHg 81%
    01:00 +28°C° 0 mm 5 mps 753 mmHg 82%
    02:00 +27°C° 0 mm 4 mps 753 mmHg 83%
    03:00 +27°C° 0 mm 4 mps 753 mmHg 84%
    04:00 +27°C° 0 mm 3 mps 753 mmHg 85%
    05:00 +27°C° 0 mm 2 mps 753 mmHg 86%
    06:00 +27°C° 0.1 mm 2 mps 754 mmHg 83%
    07:00 +28°C° 0.1 mm 2 mps 754 mmHg 80%
    08:00 +29°C° 0.1 mm 2 mps 754 mmHg 78%
    09:00 +30°C° 0.1 mm 2 mps 754 mmHg 73%
    10:00 +31°C° 0.1 mm 2 mps 754 mmHg 68%
    11:00 +32°C° 0.1 mm 2 mps 754 mmHg 63%
    12:00 +34°C° 0.4 mm 2 mps 754 mmHg 60%
    13:00 +34°C° 0.4 mm 1 mps 753 mmHg 57%
    14:00 +34°C° 0.4 mm 1 mps 752 mmHg 54%
    15:00 +34°C° 2.7 mm 1 mps 752 mmHg 58%
    16:00 +33°C° 2.7 mm 1 mps 752 mmHg 61%
    17:00 +32°C° 2.7 mm 1 mps 752 mmHg 65%
    18:00 +31°C° 2.7 mm 2 mps 752 mmHg 70%
    19:00 +30°C° 2.7 mm 3 mps 753 mmHg 75%
    20:00 +29°C° 2.7 mm 3 mps 753 mmHg 81%
    21:00 +29°C° 3.6 mm 4 mps 754 mmHg 82%
    22:00 +28°C° 3.6 mm 5 mps 754 mmHg 84%
    23:00 +28°C° 3.6 mm 5 mps 754 mmHg 86%

    Tomorrow, 18 June, Tuesday

    Time Temperature Precipitation Wind Pressure Humidity
    00:00 +28°C° 1.6 mm 4 mps 754 mmHg 87%
    01:00 +27°C° 1.6 mm 4 mps 753 mmHg 88%
    02:00 +27°C° 1.6 mm 3 mps 753 mmHg 89%
    03:00 +27°C° 0.8 mm 2 mps 753 mmHg 89%
    04:00 +27°C° 0.8 mm 2 mps 753 mmHg 89%
    05:00 +27°C° 0.8 mm 2 mps 753 mmHg 89%
    06:00 +27°C° 0.8 mm 2 mps 754 mmHg 86%
    07:00 +28°C° 0.8 mm 1 mps 754 mmHg 83%
    08:00 +28°C° 0.8 mm 1 mps 754 mmHg 80%
    09:00 +29°C° 1 mm 2 mps 755 mmHg 79%
    10:00 +29°C° 1 mm 2 mps 755 mmHg 78%
    11:00 +29°C° 1 mm 2 mps 755 mmHg 77%
    12:00 +30°C° 0.7 mm 3 mps 754 mmHg 74%
    13:00 +31°C° 0.7 mm 3 mps 753 mmHg 71%
    14:00 +31°C° 0.7 mm 3 mps 753 mmHg 68%
    15:00 +31°C° 1.3 mm 3 mps 753 mmHg 69%
    16:00 +31°C° 1.3 mm 3 mps 752 mmHg 69%
    17:00 +31°C° 1.3 mm 3 mps 752 mmHg 70%
    18:00 +30°C° 2.2 mm 3 mps 753 mmHg 75%
    19:00 +29°C° 2.2 mm 4 mps 753 mmHg 81%
    20:00 +27°C° 2.2 mm 4 mps 753 mmHg 86%
    21:00 +27°C° 2.9 mm 5 mps 754 mmHg 89%
    22:00 +26°C° 2.9 mm 5 mps 754 mmHg 91%
    23:00 +26°C° 2.9 mm 5 mps 755 mmHg 93%

    Day after tomorrow, 19 June, Wednesday

    Time Temperature Precipitation Wind Pressure Humidity
    00:00 +26°C° 3.3 mm 4 mps 754 mmHg 94%
    01:00 +26°C° 3.3 mm 3 mps 754 mmHg 94%
    02:00 +26°C° 3.3 mm 2 mps 754 mmHg 94%
    03:00 +26°C° 0.7 mm 2 mps 754 mmHg 93%
    04:00 +26°C° 0.7 mm 2 mps 753 mmHg 92%
    05:00 +26°C° 0.7 mm 3 mps 753 mmHg 91%
    06:00 +26°C° 0.1 mm 3 mps 754 mmHg 90%
    07:00 +27°C° 0.1 mm 3 mps 754 mmHg 89%
    08:00 +27°C° 0.1 mm 3 mps 754 mmHg 87%
    09:00 +27°C° 0.8 mm 4 mps 755 mmHg 86%
    10:00 +27°C° 0.8 mm 4 mps 755 mmHg 85%
    11:00 +27°C° 0.8 mm 5 mps 755 mmHg 84%
    12:00 +28°C° 0 mm 4 mps 754 mmHg 81%
    13:00 +29°C° 0 mm 4 mps 753 mmHg 77%
    14:00 +30°C° 0 mm 4 mps 753 mmHg 73%
    15:00 +30°C° 0.1 mm 4 mps 752 mmHg 74%
    16:00 +30°C° 0.1 mm 4 mps 752 mmHg 74%
    17:00 +30°C° 0.1 mm 4 mps 752 mmHg 75%
    18:00 +29°C° 0.2 mm 4 mps 752 mmHg 78%
    19:00 +29°C° 0.2 mm 4 mps 752 mmHg 81%
    20:00 +28°C° 0.2 mm 4 mps 753 mmHg 84%
    21:00 +28°C° 0 mm 4 mps 753 mmHg 85%
    22:00 +27°C° 0 mm 4 mps 754 mmHg 85%
    23:00 +27°C° 0 mm 4 mps 754 mmHg 86%

    20 June, Thursday

    Time Temperature Precipitation Wind Pressure Humidity
    00:00 +27°C° 0 mm 4 mps 754 mmHg 87%
    01:00 +26°C° 0 mm 3 mps 754 mmHg 89%
    02:00 +26°C° 0 mm 3 mps 753 mmHg 90%
    03:00 +26°C° 0 mm 3 mps 754 mmHg 91%
    04:00 +25°C° 0 mm 3 mps 754 mmHg 91%
    05:00 +25°C° 0 mm 2 mps 754 mmHg 91%
    06:00 +26°C° 0 mm 3 mps 754 mmHg 87%
    07:00 +27°C° 0 mm 3 mps 755 mmHg 82%
    08:00 +28°C° 0 mm 4 mps 755 mmHg 78%
    09:00 +29°C° 0 mm 4 mps 755 mmHg 71%
    10:00 +32°C° 0 mm 4 mps 755 mmHg 64%
    11:00 +33°C° 0 mm 5 mps 755 mmHg 58%
    12:00 +34°C° 0 mm 4 mps 755 mmHg 55%
    13:00 +34°C° 0 mm 4 mps 754 mmHg 52%
    14:00 +35°C° 0 mm 4 mps 753 mmHg 50%
    15:00 +34°C° 0.5 mm 4 mps 753 mmHg 55%
    16:00 +33°C° 0.5 mm 5 mps 753 mmHg 61%
    17:00 +32°C° 0.5 mm 5 mps 753 mmHg 67%
    18:00 +30°C° 0.7 mm 5 mps 753 mmHg 72%
    19:00 +29°C° 0.7 mm 5 mps 754 mmHg 77%
    20:00 +28°C° 0.7 mm 5 mps 754 mmHg 81%
    21:00 +27°C° 0.1 mm 5 mps 755 mmHg 83%
    22:00 +27°C° 0.1 mm 4 mps 755 mmHg 85%
    23:00 +27°C° 0.1 mm 4 mps 756 mmHg 87%

    21 June, Friday

    Time Temperature Precipitation Wind Pressure Humidity
    00:00 +27°C° 0 mm 4 mps 755 mmHg 87%
    01:00 +27°C° 0 mm 4 mps 755 mmHg 87%
    02:00 +27°C° 0 mm 4 mps 754 mmHg 88%
    03:00 +27°C° 0 mm 3 mps 754 mmHg 87%
    04:00 +26°C° 0 mm 3 mps 754 mmHg 87%
    05:00 +26°C° 0 mm 3 mps 754 mmHg 87%
    06:00 +27°C° 0 mm 4 mps 755 mmHg 82%
    07:00 +28°C° 0 mm 5 mps 755 mmHg 76%
    08:00 +28°C° 0 mm 5 mps 755 mmHg 71%
    09:00 +30°C° 0 mm 5 mps 756 mmHg 65%
    10:00 +32°C° 0 mm 5 mps 756 mmHg 59%
    11:00 +34°C° 0 mm 5 mps 756 mmHg 53%
    12:00 +34°C° 0.1 mm 5 mps 755 mmHg 53%
    13:00 +34°C° 0.1 mm 4 mps 754 mmHg 53%
    14:00 +34°C° 0.1 mm 4 mps 753 mmHg 53%
    15:00 +34°C° 0.3 mm 4 mps 753 mmHg 56%
    16:00 +33°C° 0.3 mm 5 mps 753 mmHg 59%
    17:00 +32°C° 0.3 mm 5 mps 753 mmHg 62%
    18:00 +30°C° 0.2 mm 5 mps 753 mmHg 67%
    19:00 +29°C° 0.2 mm 5 mps 754 mmHg 71%
    20:00 +28°C° 0.2 mm 5 mps 755 mmHg 75%
    21:00 +28°C° 0 mm 4 mps 755 mmHg 77%
    22:00 +28°C° 0 mm 4 mps 755 mmHg 79%
    23:00 +27°C° 0 mm 4 mps 756 mmHg 80%

    22 June, Saturday

    Time Temperature Precipitation Wind Pressure Humidity
    00:00 +27°C° 0 mm 3 mps 755 mmHg 82%
    01:00 +26°C° 0 mm 3 mps 755 mmHg 84%
    02:00 +26°C° 0 mm 3 mps 755 mmHg 86%
    03:00 +26°C° 0 mm 3 mps 755 mmHg 86%
    04:00 +26°C° 0 mm 3 mps 755 mmHg 87%
    05:00 +26°C° 0 mm 3 mps 755 mmHg 87%
    06:00 +26°C° 0 mm 3 mps 755 mmHg 84%
    07:00 +27°C° 0 mm 4 mps 755 mmHg 82%
    08:00 +28°C° 0 mm 4 mps 756 mmHg 79%
    09:00 +29°C° 0 mm 4 mps 756 mmHg 73%
    10:00 +30°C° 0 mm 4 mps 756 mmHg 67%
    11:00 +33°C° 0 mm 4 mps 756 mmHg 61%
    12:00 +33°C° 0.5 mm 4 mps 755 mmHg 60%
    13:00 +34°C° 0.5 mm 4 mps 754 mmHg 59%
    14:00 +34°C° 0.5 mm 4 mps 753 mmHg 57%
    15:00 +34°C° 0.5 mm 4 mps 753 mmHg 59%
    16:00 +33°C° 0.5 mm 4 mps 752 mmHg 62%
    17:00 +33°C° 0.5 mm 4 mps 752 mmHg 64%
    18:00 +30°C° 0.9 mm 4 mps 753 mmHg 70%
    19:00 +29°C° 0.9 mm 5 mps 753 mmHg 77%
    20:00 +28°C° 0.9 mm 5 mps 754 mmHg 83%
    21:00 +28°C° 0 mm 5 mps 754 mmHg 85%
    22:00 +27°C° 0 mm 4 mps 755 mmHg 87%
    23:00 +27°C° 0 mm 4 mps 755 mmHg 89%
    Show more